Hourly Weather Rudka-Kozyns'ka

Today, 21 April, Wednesday

Time Temperature Precipitation Wind Pressure Humidity
00:00 +6°C° 0 mm 1 mps 741 mmHg 86%
01:00 +6°C° 0 mm 1 mps 741 mmHg 86%
02:00 +4°C° 0 mm 2 mps 741 mmHg 87%
03:00 +4°C° 0 mm 2 mps 741 mmHg 88%
04:00 +4°C° 0 mm 2 mps 741 mmHg 89%
05:00 +4°C° 0 mm 2 mps 741 mmHg 90%
06:00 +5°C° 0 mm 3 mps 741 mmHg 86%
07:00 +7°C° 0 mm 3 mps 741 mmHg 82%
08:00 +8°C° 0 mm 3 mps 741 mmHg 77%
09:00 +10°C° 0.2 mm 3 mps 741 mmHg 71%
10:00 +11°C° 0.2 mm 4 mps 741 mmHg 64%
11:00 +13°C° 0.2 mm 4 mps 741 mmHg 57%
12:00 +13°C° 0.3 mm 4 mps 741 mmHg 54%
13:00 +14°C° 0.3 mm 5 mps 741 mmHg 51%
14:00 +15°C° 0 mm 5 mps 741 mmHg 48%
15:00 +14°C° 0.2 mm 5 mps 741 mmHg 52%
16:00 +14°C° 0.2 mm 4 mps 741 mmHg 56%
17:00 +13°C° 0.2 mm 4 mps 741 mmHg 60%
18:00 +12°C° 0.1 mm 4 mps 741 mmHg 66%
19:00 +10°C° 0.1 mm 3 mps 741 mmHg 72%
20:00 +9°C° 0.1 mm 3 mps 741 mmHg 79%
21:00 +8°C° 0.1 mm 3 mps 741 mmHg 82%
22:00 +8°C° 0.1 mm 3 mps 741 mmHg 85%
23:00 +8°C° 0.1 mm 3 mps 741 mmHg 89%

Tomorrow, 22 April, Thursday

Time Temperature Precipitation Wind Pressure Humidity
00:00 +7°C° 0 mm 3 mps 741 mmHg 90%
01:00 +6°C° 0 mm 4 mps 742 mmHg 91%
02:00 +5°C° 0 mm 4 mps 742 mmHg 93%
03:00 +5°C° 0 mm 4 mps 742 mmHg 92%
04:00 +5°C° 0 mm 4 mps 742 mmHg 91%
05:00 +6°C° 0 mm 4 mps 742 mmHg 90%
06:00 +7°C° 0.1 mm 4 mps 742 mmHg 87%
07:00 +8°C° 0.1 mm 4 mps 742 mmHg 84%
08:00 +9°C° 0.1 mm 5 mps 742 mmHg 81%
09:00 +10°C° 0.2 mm 5 mps 742 mmHg 75%
10:00 +12°C° 0.2 mm 5 mps 742 mmHg 70%
11:00 +13°C° 0.2 mm 5 mps 742 mmHg 64%
12:00 +12°C° 0.8 mm 5 mps 742 mmHg 68%
13:00 +10°C° 0.8 mm 5 mps 743 mmHg 72%
14:00 +9°C° 0.8 mm 5 mps 743 mmHg 76%
15:00 +8°C° 0.2 mm 5 mps 743 mmHg 78%
16:00 +7°C° 0.2 mm 5 mps 743 mmHg 79%
17:00 +6°C° 0.2 mm 4 mps 743 mmHg 81%
18:00 +6°C° 0.1 mm 4 mps 744 mmHg 81%
19:00 +5°C° 0.1 mm 4 mps 744 mmHg 81%
20:00 +5°C° 0.1 mm 3 mps 744 mmHg 80%
21:00 +4°C° 0 mm 3 mps 744 mmHg 81%
22:00 +3°C° 0 mm 3 mps 744 mmHg 81%
23:00 +3°C° 0 mm 3 mps 744 mmHg 82%

Day after tomorrow, 23 April, Friday

Time Temperature Precipitation Wind Pressure Humidity
00:00 +2°C° 0 mm 3 mps 744 mmHg 82%
01:00 +1°C° 0 mm 3 mps 744 mmHg 82%
02:00 +1°C° 0 mm 3 mps 745 mmHg 83%
03:00 +1°C° 0 mm 3 mps 745 mmHg 83%
04:00 -1°C° 0 mm 4 mps 745 mmHg 83%
05:00 -1°C° 0 mm 4 mps 745 mmHg 84%
06:00 0°C° 0 mm 5 mps 745 mmHg 77%
07:00 +1°C° 0 mm 5 mps 746 mmHg 71%
08:00 +2°C° 0 mm 6 mps 746 mmHg 64%
09:00 +3°C° 0 mm 6 mps 746 mmHg 61%
10:00 +4°C° 0 mm 6 mps 746 mmHg 57%
11:00 +5°C° 0 mm 6 mps 746 mmHg 53%
12:00 +5°C° 0.2 mm 6 mps 746 mmHg 52%
13:00 +7°C° 0.2 mm 6 mps 746 mmHg 51%
14:00 +7°C° 0.2 mm 6 mps 746 mmHg 49%
15:00 +7°C° 0.1 mm 6 mps 746 mmHg 50%
16:00 +7°C° 0.1 mm 6 mps 746 mmHg 51%
17:00 +7°C° 0.1 mm 5 mps 746 mmHg 51%
18:00 +6°C° 0 mm 5 mps 746 mmHg 59%
19:00 +4°C° 0 mm 4 mps 746 mmHg 67%
20:00 +3°C° 0 mm 3 mps 746 mmHg 74%
21:00 +3°C° 0.2 mm 4 mps 745 mmHg 81%
22:00 +1°C° 0.2 mm 5 mps 745 mmHg 87%
23:00 +1°C° 0.2 mm 6 mps 745 mmHg 94%

24 April, Saturday

Time Temperature Precipitation Wind Pressure Humidity
00:00 -1°C° 0.2 mm 6 mps 746 mmHg 92%
01:00 -2°C° 0.2 mm 7 mps 746 mmHg 90%
02:00 -3°C° 0.2 mm 7 mps 746 mmHg 88%
03:00 -3°C° 0 mm 6 mps 747 mmHg 88%
04:00 -4°C° 0 mm 6 mps 747 mmHg 89%
05:00 -4°C° 0 mm 5 mps 747 mmHg 89%
06:00 -2°C° 0 mm 5 mps 748 mmHg 82%
07:00 -2°C° 0 mm 6 mps 748 mmHg 75%
08:00 +1°C° 0 mm 6 mps 748 mmHg 68%
09:00 +2°C° 0.1 mm 6 mps 748 mmHg 61%
10:00 +3°C° 0.1 mm 6 mps 748 mmHg 53%
11:00 +5°C° 0.1 mm 6 mps 748 mmHg 46%
12:00 +5°C° 0 mm 6 mps 748 mmHg 44%
13:00 +5°C° 0 mm 6 mps 748 mmHg 43%
14:00 +7°C° 0 mm 6 mps 748 mmHg 41%
15:00 +7°C° 0 mm 6 mps 748 mmHg 43%
16:00 +7°C° 0 mm 6 mps 748 mmHg 45%
17:00 +7°C° 0 mm 5 mps 747 mmHg 47%
18:00 +6°C° 0 mm 4 mps 747 mmHg 53%
19:00 +4°C° 0 mm 4 mps 747 mmHg 60%
20:00 +2°C° 0 mm 3 mps 748 mmHg 66%
21:00 +3°C° 0 mm 2 mps 747 mmHg 68%
22:00 +2°C° 0 mm 2 mps 747 mmHg 71%
23:00 +2°C° 0 mm 2 mps 747 mmHg 73%

25 April, Sunday

Time Temperature Precipitation Wind Pressure Humidity
00:00 +2°C° 0 mm 2 mps 747 mmHg 76%
01:00 +1°C° 0 mm 3 mps 747 mmHg 79%
02:00 +1°C° 0 mm 3 mps 747 mmHg 81%
03:00 0°C° 0 mm 3 mps 747 mmHg 85%
04:00 0°C° 0 mm 3 mps 747 mmHg 89%
05:00 -1°C° 0 mm 3 mps 747 mmHg 92%
06:00 -1°C° 0 mm 4 mps 748 mmHg 85%
07:00 0°C° 0 mm 5 mps 748 mmHg 77%
08:00 -1°C° 0 mm 6 mps 748 mmHg 69%
09:00 +1°C° 0 mm 6 mps 749 mmHg 64%
10:00 +2°C° 0 mm 6 mps 749 mmHg 59%
11:00 +2°C° 0 mm 6 mps 749 mmHg 53%
12:00 +3°C° 0 mm 6 mps 749 mmHg 50%
13:00 +4°C° 0 mm 6 mps 749 mmHg 48%
14:00 +5°C° 0 mm 6 mps 748 mmHg 45%
15:00 +5°C° 0.1 mm 6 mps 748 mmHg 48%
16:00 +5°C° 0.1 mm 6 mps 748 mmHg 51%
17:00 +4°C° 0.1 mm 6 mps 748 mmHg 55%
18:00 +3°C° 0.1 mm 5 mps 748 mmHg 61%
19:00 +3°C° 0.1 mm 4 mps 748 mmHg 68%
20:00 +2°C° 0.1 mm 3 mps 748 mmHg 74%
21:00 +2°C° 0 mm 3 mps 748 mmHg 76%
22:00 +1°C° 0 mm 3 mps 748 mmHg 79%
23:00 +1°C° 0 mm 3 mps 747 mmHg 81%

26 April, Monday

Time Temperature Precipitation Wind Pressure Humidity
00:00 0°C° 0 mm 3 mps 747 mmHg 83%
01:00 0°C° 0 mm 3 mps 747 mmHg 85%
02:00 -1°C° 0 mm 3 mps 747 mmHg 87%
03:00 -2°C° 0 mm 3 mps 747 mmHg 85%
04:00 -2°C° 0 mm 3 mps 747 mmHg 83%
05:00 -3°C° 0 mm 2 mps 747 mmHg 82%
06:00 -1°C° 0 mm 2 mps 747 mmHg 71%
07:00 +2°C° 0 mm 2 mps 747 mmHg 61%
08:00 +3°C° 0 mm 2 mps 747 mmHg 51%
09:00 +5°C° 0 mm 2 mps 747 mmHg 47%
10:00 +6°C° 0 mm 2 mps 747 mmHg 44%
11:00 +8°C° 0 mm 3 mps 746 mmHg 40%
12:00 +8°C° 0 mm 3 mps 746 mmHg 43%
13:00 +9°C° 0 mm 3 mps 745 mmHg 45%
14:00 +8°C° 0 mm 4 mps 745 mmHg 48%
15:00 +9°C° 0.3 mm 3 mps 744 mmHg 52%
16:00 +9°C° 0.3 mm 2 mps 744 mmHg 57%
17:00 +9°C° 0.3 mm 2 mps 743 mmHg 61%
18:00 +7°C° 0.6 mm 2 mps 743 mmHg 71%
19:00 +4°C° 0.6 mm 3 mps 743 mmHg 82%
20:00 +3°C° 0.6 mm 4 mps 743 mmHg 92%
21:00 +2°C° 0 mm 3 mps 744 mmHg 93%
22:00 +1°C° 0 mm 3 mps 744 mmHg 94%
23:00 +1°C° 0 mm 2 mps 744 mmHg 95%
Show more